Tracking 22094 objects as of 17-Jan-2021
HD Live streaming from Space Station
objects crossing your sky now

TBEX-B

Track TBEX-B now!
10-day predictions
TBEX-B is classified as:


NORAD ID: 44359
Int'l Code: 2019-036W
Perigee: 272.4 km
Apogee: 431.1 km
Inclination: 28.5 °
Period: 91.4 minutes
Semi major axis: 6722 km
RCS: Unknown
Launch date: June 25, 2019
Source: United States (US)
Launch site: AIR FORCE EASTERN TEST RANGE (AFETR)

Uplink (MHz):
Downlink (MHz): 437.485
Beacon (MHz):
Mode: 9600bps GMSK
Call sign: KF6RFX
Status: Active

aabbcc
Your satellite tracking list
Your tracking list is empty




NASA's NSSDC Master Catalog

Two Line Element Set (TLE):
1 44359U 19036W   21017.07034131  .00176880  21889-5  70679-3 0  9999
2 44359  28.5088 284.8455 0117971 290.2793  68.5169 15.75008957 87166
Source of the keplerian elements: AFSPC